Date,TemperatureHighF,TemperatureAvgF,TemperatureLowF,DewpointHighF,DewpointAvgF,DewpointLowF,HumidityHigh,HumidityAvg,HumidityLow,PressureMaxIn,PressureMinIn,WindSpeedMaxMPH,WindSpeedAvgMPH,GustSpeedMaxMPH,PrecipitationSumIn
2013-1-1,31.0,23.3,17.0,24.0,15.6,7.0,92,73,50,0.00,40.00,22,10,37,0.00
2013-1-2,27.0,21.4,9.0,19.0,10.6,4.0,84,64,42,0.00,40.00,30,16,43,0.00
2013-1-3,34.0,19.9,9.0,11.0,4.8,-1.0,80,53,35,0.00,40.00,14,9,19,0.00
2013-1-4,42.0,27.9,20.0,13.0,6.4,1.0,55,40,27,0.00,40.00,16,8,20,0.00
2013-1-5,37.0,27.0,20.0,18.0,11.8,8.0,61,53,42,0.00,40.00,12,6,20,0.00
2013-1-6,40.0,31.9,22.0,17.0,11.6,5.0,54,43,32,0.00,40.00,24,11,37,0.00
2013-1-7,39.0,30.1,22.0,18.0,13.5,8.0,59,50,35,0.00,40.00,12,7,17,0.00
2013-1-8,42.0,32.0,24.0,19.0,16.6,13.0,73,53,38,0.00,40.00,22,8,31,0.00
2013-1-9,48.0,40.0,25.0,24.0,19.1,13.0,60,43,33,0.00,40.00,35,19,54,0.00
2013-1-10,51.0,41.2,25.0,27.0,18.3,14.0,96,43,27,0.00,40.00,30,19,47,0.00
2013-1-11,25.0,9.5,2.0,24.0,3.2,-6.0,94,76,62,0.00,40.00,31,23,51,0.00
2013-1-12,11.0,5.1,2.0,2.0,-2.3,-6.0,76,71,65,0.00,40.00,27,9,47,0.00
2013-1-13,14.0,7.1,2.0,3.0,-1.5,-6.0,78,67,56,0.00,40.00,12,6,19,0.00
2013-1-14,16.0,8.1,2.0,-1.0,-5.9,-9.0,62,52,45,0.00,40.00,16,10,22,0.00
2013-1-15,36.0,24.3,9.0,27.0,14.1,-7.0,85,66,47,0.00,40.00,25,11,34,0.00
2013-1-16,42.0,34.1,27.0,20.0,16.4,14.0,64,49,36,0.00,40.00,18,7,26,0.00
2013-1-17,42.0,31.5,23.0,21.0,14.6,10.0,59,50,40,0.00,40.00,15,11,22,0.00
2013-1-18,49.0,39.0,31.0,23.0,14.6,10.0,45,37,27,0.00,40.00,14,9,21,0.00
2013-1-19,41.0,35.1,27.0,22.0,15.5,10.0,79,47,30,0.00,40.00,13,7,19,0.00
2013-1-20,32.0,22.8,18.0,18.0,13.6,11.0,83,68,43,0.00,40.00,22,9,32,0.00
2013-1-21,38.0,24.8,14.0,18.0,14.2,10.0,87,66,41,0.00,40.00,10,3,16,0.00
2013-1-22,46.0,35.0,28.0,14.0,9.4,5.0,54,36,22,0.00,40.00,7,4,15,0.00
2013-1-23,34.0,30.8,27.0,19.0,12.3,5.0,64,47,29,0.00,40.00,20,7,26,0.00
2013-1-24,49.0,38.5,27.0,22.0,17.2,13.0,69,43,26,0.00,40.00,20,7,25,0.00
2013-1-25,53.0,37.0,26.0,25.0,20.2,16.0,73,53,26,0.00,40.00,14,7,20,0.00
2013-1-26,55.0,39.9,29.0,27.0,21.5,19.0,68,50,27,0.00,40.00,15,7,22,0.00
2013-1-27,40.0,33.1,28.0,32.0,28.3,24.0,98,83,59,0.00,40.00,19,11,26,0.00
2013-1-28,30.0,26.3,19.0,27.0,24.0,16.0,98,91,75,0.00,40.00,9,6,14,0.00
2013-1-29,25.0,16.0,3.0,20.0,9.9,-3.0,89,77,65,0.00,40.00,25,11,38,0.00
2013-1-30,30.0,18.1,1.0,24.0,13.0,-4.0,94,80,68,0.00,40.00,23,10,34,0.00
2013-1-31,30.0,16.1,2.0,22.0,9.0,-4.0,77,73,58,0.00,40.00,10,6,16,0.00